Wetterdaten: aktuell Sonntag, 21.07.2024 15:55
Datum Zeit Temperatur Bodentemp. Luftfeuchte Luftdruck Regen Sonnenschein
21.07.2024 15:55 21,4 C 22,5 C 87 % 1008 hPa 0,0 l/m 0 min
21.07.2024 15:50 21,4 C 22,5 C 87 % 1008 hPa 0,0 l/m 0 min
21.07.2024 15:45 21,4 C 22,4 C 87 % 1008 hPa 0,0 l/m 0 min
21.07.2024 15:40 20,9 C 22,3 C 86 % 1008 hPa 0,0 l/m 0 min
21.07.2024 15:35 21,3 C 22,4 C 87 % 1008 hPa 0,0 l/m 0 min
21.07.2024 15:30 21,3 C 22,4 C 87 % 1008 hPa 0,0 l/m 0 min
21.07.2024 15:25 21,2 C 22,4 C 86 % 1008 hPa 0,0 l/m 0 min
21.07.2024 15:20 21,3 C 22,4 C 87 % 1008 hPa 0,0 l/m 0 min
21.07.2024 15:15 21,7 C 22,5 C 89 % 1008 hPa 0,0 l/m 0 min
21.07.2024 15:10 21,3 C 22,4 C 91 % 1008 hPa 0,0 l/m 0 min
21.07.2024 15:05 20,9 C 22,0 C 92 % 1008 hPa 0,0 l/m 0 min
21.07.2024 15:00 20,7 C 21,9 C 92 % 1008 hPa 0,0 l/m 0 min
21.07.2024 14:55 20,4 C 21,8 C 93 % 1008 hPa 0,4 l/m 0 min
21.07.2024 14:50 20,0 C 21,7 C 93 % 1008 hPa 0,0 l/m 0 min
21.07.2024 14:45 19,4 C 21,3 C 93 % 1008 hPa 0,0 l/m 0 min
21.07.2024 14:40 19,2 C 21,3 C 92 % 1008 hPa 0,0 l/m 0 min
21.07.2024 14:35 19,2 C 21,3 C 92 % 1008 hPa 0,7 l/m 0 min
21.07.2024 14:30 19,3 C 21,3 C 91 % 1008 hPa 0,0 l/m 0 min
21.07.2024 14:25 19,2 C 21,2 C 90 % 1008 hPa 0,0 l/m 0 min
21.07.2024 14:20 19,4 C 21,3 C 88 % 1008 hPa 0,4 l/m 0 min
21.07.2024 14:15 19,3 C 20,9 C 85 % 1008 hPa 0,4 l/m 0 min
21.07.2024 14:10 19,2 C 20,9 C 83 % 1008 hPa 0,7 l/m 0 min
21.07.2024 14:05 19,4 C 21,5 C 82 % 1008 hPa 0,0 l/m 0 min
21.07.2024 14:00 19,5 C 21,6 C 80 % 1008 hPa 1,4 l/m 0 min
21.07.2024 13:55 19,6 C 21,8 C 79 % 1008 hPa 0,0 l/m 0 min
21.07.2024 13:50 20,2 C 22,1 C 78 % 1008 hPa 0,4 l/m 0 min
21.07.2024 13:45 20,4 C 22,0 C 74 % 1008 hPa 0,0 l/m 0 min
21.07.2024 13:40 21,0 C 22,1 C 69 % 1008 hPa 0,0 l/m 0 min
21.07.2024 13:35 21,5 C 22,4 C 66 % 1008 hPa 0,0 l/m 0 min
21.07.2024 13:30 23,1 C 23,2 C 58 % 1008 hPa 0,0 l/m 0 min
21.07.2024 13:25 24,7 C 24,0 C 51 % 1007 hPa 0,0 l/m 0 min
21.07.2024 13:20 25,6 C 24,4 C 55 % 1007 hPa 0,0 l/m 0 min
21.07.2024 13:15 26,3 C 24,1 C 53 % 1007 hPa 0,0 l/m 0 min
21.07.2024 13:10 26,7 C 24,4 C 49 % 1006 hPa 0,0 l/m 0 min
21.07.2024 13:05 27,4 C 24,8 C 47 % 1006 hPa 0,0 l/m 0 min
21.07.2024 13:00 27,4 C 24,6 C 47 % 1006 hPa 0,0 l/m 0 min
21.07.2024 12:55 27,5 C 24,7 C 45 % 1006 hPa 0,0 l/m 0 min
21.07.2024 12:50 27,7 C 25,4 C 45 % 1006 hPa 0,0 l/m 0 min
21.07.2024 12:45 27,6 C 25,6 C 44 % 1006 hPa 0,0 l/m 0 min
21.07.2024 12:40 28,1 C 24,7 C 45 % 1006 hPa 0,0 l/m 0 min
21.07.2024 12:35 27,8 C 24,6 C 47 % 1007 hPa 0,0 l/m 0 min
21.07.2024 12:30 27,6 C 24,7 C 45 % 1007 hPa 0,0 l/m 0 min
21.07.2024 12:25 27,3 C 24,7 C 48 % 1007 hPa 0,0 l/m 0 min
21.07.2024 12:20 27,1 C 24,6 C 48 % 1007 hPa 0,0 l/m 0 min
21.07.2024 12:15 27,1 C 23,9 C 48 % 1007 hPa 0,0 l/m 0 min
21.07.2024 12:10 27,0 C 24,0 C 48 % 1007 hPa 0,0 l/m 0 min
21.07.2024 12:05 26,9 C 23,7 C 50 % 1007 hPa 0,0 l/m 0 min
21.07.2024 12:00 26,7 C 23,7 C 47 % 1007 hPa 0,0 l/m 0 min
21.07.2024 11:55 26,8 C 23,5 C 50 % 1007 hPa 0,0 l/m 0 min
_ Min-Zeit 04:55 05:15 16:35 21:16 - -
Minimum _ 18,3 C 19,7 C 26 % 807 hPa - -
_ Max-Zeit 16:35 18:05 14:45 16:00 08:40 16:00
Maximum _ 31,5 C 30,7 C 93 % 1008 hPa 2,2 l/m 0 min
Durchschnitt _ 24,0 C 23,3 C 61 % 1006 hPa #7,9 l/m #0 min.